Orbital Elements at Epoch 2459000.5 (2020-May-31.0) TDB
Reference: JPL 23 (heliocentric ecliptic J2000)
Element | Value | Uncertainty (1-sigma) | Units |
e | .1839263465412884 | 3.2474e-08 | |
a | 2.268824456575562 | 9.6749e-09 | au |
q | 1.851527863334095 | 7.5136e-08 | au |
i | 3.446069008646115 | 4.4275e-06 | deg |
node | 141.3048627900571 | 6.8497e-05 | deg |
peri | 157.5234148540907 | 6.9708e-05 | deg |
M | 284.5041990601359 | 1.4155e-05 | deg |
tp | 2459262.270116020766 (2021-Feb-16.77011602) | 4.9722e-05 | TDB |
period | 1248.244810894053 3.42 | 7.9843e-06 2.186e-08 | d yr |
n | .2884049642010134 | 1.8448e-09 | deg/d |
Q | 2.686121049817029 | 1.1454e-08 | au |
|
| | Orbit Determination Parameters
Additional Information
|